Notices

What's New in latest Release from April 7th, 2021:

- Updated Glossary, including Speed of Maximum Gust, and Total Hourly Precipitation

- Updated national and regional climate services offices contacts and prices information

- Addition of station inventory lists for 1981-2010, 1971-2000, and 1961-1990 Normals.

If you haven't already, please take our survey and provide feedback about our website: https://eccc.sondage-survey.ca/f/LanguageSelection.aspx?s=442ca660-fcf1-47c0-95a9-59707d6fd709

Hourly Data Report for October 25, 2015

IQALUIT CLIMATE
NUNAVUT

63°44'50.000" N
68°32'40.000" W
33.50 m
2402592
71321
XFB

Download Data

Hourly Data (October 2015)
Hourly Data Report for October 25, 2015
TIME
LST
Temp Definition
°C
Dew Point Definition
°C
Rel Hum Definition
%
Precip. Amount Definition
mm

Wind Dir Definition
10's deg

Wind Spd Definition
km/h
Visibility Definition
km
Stn Press Definition
kPa
Hmdx Definition


Wind Chill Definition


Weather Definition


00:00 -0.7 -1.3 96 0.0 15 24   98.30   -7 LegendNANA
01:00 -0.6 -1.2 95 0.2 15 24   98.26   -7 LegendNANA
02:00 -0.5 -1.2 95 0.0 14 20   98.24   -6 LegendNANA
03:00 -0.6 -1.1 96 0.0 16 14   98.21   -5 LegendNANA
04:00 -4.5 -5.2 95 0.6 33 33   98.34   -13 LegendNANA
05:00 -5.1 -6.3 92 0.0 33 38   98.44   -14 LegendNANA
06:00 -5.6 -7.2 89 0.0 33 34   98.53   -14 LegendNANA
07:00 -6.0 -7.9 87 0.0 32 30   98.65   -14 LegendNANA
08:00 -6.3 -8.4 85 0.0 32 26   98.75   -14 LegendNANA
09:00 -7.0 -9.2 84 0.0 33 31   98.85   -16 LegendNANA
10:00 -7.2 -10.0 80 0.0 32 27   98.91   -15 LegendNANA
11:00 -7.3 -10.6 77 0.0 32 20   98.96   -14 LegendNANA
12:00 -7.1 -10.2 79 0.0 33 19   99.03   -14 LegendNANA
13:00 -7.0 -9.3 84 0.0 33 20   99.07   -14 LegendNANA
14:00 -8.0 -10.5 82 0.0 33 28   99.14   -17 LegendNANA
15:00 -8.6 -11.4 80 0.0 33 31   99.18   -18 LegendNANA
16:00 -9.1 -11.9 80 0.0 33 24   99.25   -17 LegendNANA
17:00 -11.0 -13.7 80 0.0 32 14   99.32   -18 LegendNANA
18:00 -12.9 -15.9 78 0.0 34 11   99.34   -19 LegendNANA
19:00 -13.5 -16.5 78 0.0 33 11   99.32   -20 LegendNANA
20:00 -17.5 -20.0 81 0.0 36 9   99.34   -24 LegendNANA
21:00 -17.0 -20.3 75 0.0 33 10   99.31   -24 LegendNANA
22:00 -15.1 -17.4 83 0.0 35 9   99.33   -21 LegendNANA
23:00 -14.9 -17.1 83 0.0 2 7   99.31   -20 LegendNANA

Notes on Data Quality.

Legend

  • E = Estimated
  • M = Missing
  • NA = Not Available*
  • [empty] = Indicates an unobserved value
Date modified: